Location: Chuathbaluk
(61.5726°N, 159.2454°W)
Time: 03:45:23
(UTC+00:00)

SR - Visible Passes

Search period start: 19 May 2021 00:00
Search period end: 29 May 2021 00:00
Orbit: 573 x 881 km, 66.7° (Epoch: 18 May)

Date Brightness Start Highest point End Pass type
(mag) Time Alt. Az. Time Alt. Az. Time Alt. Az.
19 May ? 09:34:00 10° SE 09:36:13 12° ESE 09:38:26 10° E visible
19 May ? 11:11:31 10° S 11:16:57 40° SE 11:22:24 10° ENE visible
20 May ? 10:22:37 10° S 10:27:27 28° ESE 10:32:22 10° ENE visible
20 May ? 12:03:02 10° SW 12:08:58 75° SE 12:14:50 10° NE visible
21 May ? 09:34:13 10° SSE 09:38:07 19° ESE 09:42:02 10° ENE visible
21 May ? 11:13:28 10° SSW 11:19:14 55° SE 11:24:58 10° NE visible
22 May ? 10:24:12 10° S 10:29:38 38° ESE 10:35:02 10° ENE visible
23 May ? 09:35:21 10° S 09:40:09 27° ESE 09:44:58 10° ENE visible
23 May ? 11:15:42 10° SW 11:21:37 72° SE 11:27:28 10° NE visible
24 May ? 10:26:09 10° SSW 10:31:55 53° SE 10:37:35 10° NE visible
25 May ? 09:36:55 10° S 09:42:18 37° ESE 09:47:40 10° ENE visible
25 May ? 11:18:07 10° SW 11:24:06 89° NNW 11:29:58 10° NE visible
26 May ? 10:28:22 10° SW 10:34:17 70° SE 10:40:06 10° NE visible
27 May ? 09:38:51 10° SSW 09:44:34 51° SE 09:50:13 10° NE visible
27 May ? 11:20:42 10° WSW 11:26:39 74° NNW 11:32:28 10° ENE visible
28 May ? 10:30:45 10° SW 10:36:45 89° SE 10:42:35 10° NE visible
